Wind_Speed
14 14 15 16 18 20 22 23 24 26 26 26 26 26 26 26 26 27 28 27 26 25 24 23 22 23 24 25 26 26 26 24 22 20 19 19 21 21 21 22 22 21 20 21 20 18 17 17 18 20 20 18 13 9 7 5 4 3 5 10 11 9 9 9 10 12 13 13 11 10 9 8 10 11 11 12 13 13 13 13 14 14 14 14 14 15
14 14 16 18 20 20 21 21 22 24 24 24 24 24 25 24 25 26 27 26 25 23 22 21 22 23 24 24 24 23 21 19 17 15 15 17 19 20 21 22 21 19 19 19 18 16 16 16 16 17 18 17 14 9 7 6 5 4 7 11 13 12 10 10 11 13 13 13 11 10 9 9 11 11 13 14 14 15 14 14 13 13 14 14 13 14
15 17 18 19 19 19 19 20 21 22 22 22 22 22 23 22 23 25 25 24 22 19 19 20 21 21 21 20 20 19 16 16 16 16 17 18 19 20 21 21 19 17 17 16 15 14 14 14 15 14 14 14 13 11 9 8 7 7 9 11 12 11 10 10 12 14 14 13 11 11 10 11 11 12 14 16 16 15 15 15 14 12 12 12 13 13
16 17 17 17 18 18 18 19 20 20 20 20 20 20 21 21 23 24 22 21 20 18 18 19 19 19 18 17 17 16 15 16 17 18 20 21 21 21 20 18 16 16 14 12 12 12 12 14 14 13 12 11 11 11 11 11 10 11 12 12 12 11 11 12 13 14 14 13 12 12 12 12 13 14 15 17 16 15 15 16 15 12 10 10 11 12
16 16 16 17 17 18 18 18 18 18 17 17 18 19 20 21 22 22 21 19 18 17 18 19 19 18 17 16 15 15 16 17 18 20 21 21 20 18 16 14 15 14 12 11 10 10 11 12 12 12 12 11 11 11 12 13 13 14 15 14 14 13 13 14 15 16 15 14 13 13 13 14 14 15 16 16 16 14 15 17 15 12 10 9 10 10
16 16 16 16 17 17 18 18 18 16 16 16 17 18 19 21 22 21 20 19 18 18 18 20 21 20 18 17 16 16 17 18 19 20 19 18 16 14 13 13 13 11 10 9 8 8 9 10 9 9 10 11 12 13 13 14 14 15 15 15 15 16 16 16 16 16 15 14 14 14 14 15 15 16 16 16 15 14 16 17 15 13 11 10 10 10
16 16 16 16 16 16 16 17 16 15 15 16 16 18 19 21 22 22 20 19 19 19 20 22 22 20 19 18 18 18 18 20 20 18 17 16 15 14 13 12 11 9 8 8 8 7 8 8 7 7 8 10 13 13 13 13 14 14 14 14 15 16 15 15 15 16 15 14 14 14 15 15 16 17 17 15 14 15 16 16 15 14 13 12 11 11
16 16 16 16 15 15 14 15 15 15 15 16 17 18 19 21 22 22 21 20 21 21 22 23 22 21 20 20 20 20 20 20 19 18 17 16 15 14 12 11 10 9 7 7 8 9 9 9 8 8 9 11 12 12 12 12 13 13 14 14 14 15 15 15 16 16 15 14 14 15 16 16 16 18 17 16 15 15 17 17 15 15 14 13 13 14
17 17 17 16 16 15 14 15 15 16 16 17 18 19 20 22 23 23 22 21 22 24 24 25 24 22 22 22 22 22 22 21 19 18 17 16 15 14 12 12 11 11 9 9 9 10 11 11 11 10 11 12 12 12 13 13 14 15 15 15 15 16 16 17 17 16 16 15 16 17 17 17 17 18 18 16 15 15 17 18 18 17 16 16 18 20
19 19 18 18 17 16 15 16 16 16 17 18 19 20 20 22 23 24 24 24 25 26 27 28 27 25 23 23 23 24 24 23 20 19 17 16 15 14 13 13 13 13 13 13 13 13 13 14 15 14 13 12 12 13 15 16 17 17 18 18 19 20 19 18 18 17 16 16 17 18 19 19 19 19 18 17 16 15 16 17 19 19 20 20 22 23
20 20 19 19 18 17 17 17 17 17 18 19 20 20 21 22 23 25 26 26 27 28 29 29 29 27 26 25 25 25 26 25 23 20 18 16 14 13 13 13 15 15 15 15 16 16 16 16 18 18 16 15 14 14 16 19 19 20 21 21 22 22 20 19 18 17 18 18 19 20 21 22 21 20 19 17 16 16 15 15 17 19 21 22 22 21
21 20 20 19 19 18 18 18 18 18 18 19 20 21 21 22 23 26 27 28 28 29 29 30 30 29 28 27 27 26 26 25 24 22 19 16 15 14 14 15 16 16 16 17 18 18 18 19 21 21 19 18 17 15 16 19 21 23 25 24 23 22 21 19 19 19 20 20 20 21 22 23 23 22 21 18 16 16 16 16 16 18 20 21 21 19
22 21 21 20 20 20 20 20 20 20 19 19 20 21 21 22 23 25 28 29 29 29 30 31 31 31 30 29 28 27 27 26 25 24 21 18 16 16 17 17 17 18 18 18 19 20 20 21 23 24 23 21 20 18 18 21 24 26 27 25 22 21 21 20 21 21 21 21 22 23 24 25 25 23 22 19 17 17 17 17 16 17 19 19 18 17
24 23 22 22 22 22 22 22 21 20 19 19 19 20 20 22 23 25 27 29 30 30 31 31 32 32 32 30 30 29 28 27 26 25 23 21 19 19 20 20 20 22 22 22 22 23 23 24 26 27 26 24 23 22 21 24 26 27 25 21 19 20 21 21 21 22 21 21 22 23 24 24 24 23 21 18 17 17 17 17 16 17 18 16 16 15
25 25 25 24 24 23 23 22 21 20 20 20 21 22 22 23 25 25 26 27 28 30 31 32 33 34 33 31 31 30 29 29 28 26 25 24 23 23 23 24 24 25 26 27 27 27 27 27 28 32 29 24 24 24 25 28 26 24 22 21 23 23 22 21 21 20 20 20 21 21 21 21 22 21 19 18 18 18 19 18 17 17 17 16 15 15
25 26 26 26 26 25 24 23 23 23 23 23 24 24 23 23 24 26 27 27 27 28 30 33 35 35 34 32 31 30 30 30 30 29 29 28 27 27 27 28 28 29 30 31 31 31 31 28 30 35 31 22 22 25 29 30 26 22 22 22 22 18 15 16 16 16 17 18 18 17 16 16 16 15 16 17 19 21 22 20 18 18 17 15 15 14
24 24 26 28 28 28 27 26 26 25 25 25 25 24 23 22 24 25 27 28 28 28 28 31 33 35 34 33 32 31 31 31 32 32 32 32 32 32 31 31 31 31 32 32 31 33 34 30 28 31 32 22 21 27 30 29 24 21 22 21 18 16 14 13 12 11 12 12 11 10 8 9 10 11 12 15 18 20 21 19 19 19 18 17 16 15
24 23 25 27 29 29 28 28 28 28 27 26 26 24 22 23 24 24 25 26 28 28 28 28 30 32 33 32 31 31 31 32 33 34 34 34 34 33 33 32 32 31 30 31 32 33 34 31 27 29 36 30 24 25 28 26 21 17 15 14 15 16 14 12 11 11 9 8 7 8 8 8 10 10 11 13 16 18 18 18 19 19 18 18 18 17
26 24 24 26 27 28 28 28 29 29 28 27 26 24 23 24 24 23 23 24 25 26 26 27 27 28 28 27 27 26 27 28 29 30 31 31 31 30 31 31 29 29 28 29 31 30 29 31 29 29 35 35 29 28 27 26 24 19 16 16 16 13 9 8 10 10 9 9 9 10 10 9 9 10 11 12 14 15 16 15 15 15 16 17 17 17
26 25 24 25 26 28 29 29 29 29 28 27 26 26 25 25 23 23 22 22 22 23 24 25 25 25 23 23 22 22 21 22 23 25 26 27 27 27 27 28 27 27 27 27 28 29 28 31 31 30 33 36 34 31 29 28 27 24 21 20 18 14 10 9 9 8 7 9 10 10 10 9 10 10 11 13 13 13 14 12 11 12 15 16 16 17
28 27 25 26 26 28 30 31 31 30 28 27 27 26 25 24 23 23 23 23 23 23 23 23 23 22 21 20 20 19 19 19 20 22 23 25 25 23 23 24 24 25 28 27 27 29 29 31 32 30 31 33 31 28 28 27 26 24 21 19 16 13 10 8 8 7 8 9 10 10 11 11 11 11 12 13 13 13 13 13 12 13 15 17 18 19
30 28 26 27 28 29 30 31 31 31 30 28 27 25 24 23 22 22 23 24 24 23 22 22 21 20 18 19 18 17 17 17 17 18 20 21 21 21 23 23 23 24 27 26 26 29 29 28 28 27 26 26 23 22 23 24 23 21 19 17 15 13 12 10 8 8 9 10 11 11 12 12 13 13 13 14 15 15 15 15 15 15 16 18 20 20
31 29 27 28 29 30 30 31 31 31 30 29 28 27 26 25 24 23 23 23 23 22 21 20 20 19 17 17 16 15 15 14 15 15 16 17 18 20 21 23 24 25 25 25 25 26 24 22 22 22 22 21 20 20 22 23 22 20 17 17 16 16 15 14 13 12 11 11 12 12 12 12 13 13 14 15 15 16 16 16 16 16 17 19 20 21
32 31 29 29 29 30 31 31 32 32 31 30 29 29 29 28 26 24 24 23 23 22 21 20 20 19 17 16 15 15 15 14 14 14 15 16 17 18 19 20 22 23 23 23 24 23 22 20 20 19 19 20 20 21 21 22 21 20 18 18 18 18 18 17 16 16 15 14 14 13 13 12 11 12 14 16 16 15 15 16 16 17 18 20 21 21
35 34 32 31 30 31 32 33 33 33 32 31 29 29 29 28 27 25 24 25 25 25 23 22 22 20 17 17 16 16 16 15 15 16 16 16 17 18 18 18 19 20 20 21 22 22 21 19 18 17 17 18 20 21 22 22 22 21 20 20 19 19 19 18 18 18 17 17 16 15 14 14 13 14 15 16 17 17 17 18 17 17 19 21 21 19
35 35 34 33 32 31 32 31 31 32 31 31 29 29 29 28 27 27 26 26 26 26 25 24 23 21 20 19 18 17 17 16 16 17 17 17 18 19 19 19 18 18 19 19 20 19 18 16 16 16 16 16 17 19 20 21 22 22 22 21 21 21 21 21 20 20 19 18 18 18 18 18 18 18 18 18 19 20 20 21 20 19 19 20 20 18
32 33 33 33 33 33 31 29 29 30 30 30 30 29 30 30 29 28 28 28 27 27 27 27 25 24 23 22 20 20 19 18 17 17 17 17 18 19 20 19 18 18 18 18 19 19 19 19 18 18 18 18 18 19 20 21 21 22 22 22 23 23 23 23 23 23 23 22 22 22 23 23 23 23 23 23 23 23 23 24 23 21 21 21 22 23
27 32 34 35 34 35 35 34 33 32 32 32 32 32 31 31 32 31 31 30 29 29 29 29 28 27 26 24 23 22 21 20 19 19 19 19 19 19 19 19 19 19 19 20 21 22 23 22 20 20 20 21 21 22 22 23 23 24 24 25 25 25 25 26 26 27 27 26 27 27 28 28 28 28 27 27 27 26 26 26 26 26 25 25 26 28
23 25 30 36 39 39 38 38 38 36 35 35 36 36 35 35 35 35 35 34 33 33 32 32 31 30 28 27 26 25 23 22 22 22 21 22 22 22 22 22 22 23 23 24 24 24 24 23 21 21 21 21 22 24 25 25 26 26 27 27 28 28 28 29 29 30 30 30 30 30 31 31 31 31 31 30 30 30 30 30 29 29 30 29 28 29
23 22 23 28 35 38 40 40 41 41 40 40 40 40 39 38 38 38 38 37 37 37 36 35 34 33 32 31 29 28 27 26 25 25 25 25 25 24 25 25 26 26 26 27 26 26 26 26 25 25 25 25 26 27 28 29 29 30 30 31 31 31 32 32 33 33 33 33 34 34 34 35 35 34 35 35 34 34 34 33 33 32 32 31 31 30
25 25 24 24 25 28 32 36 39 41 43 43 44 44 43 42 42 42 41 40 40 39 38 37 37 36 36 34 33 32 30 28 28 28 28 28 28 28 28 28 28 29 29 29 29 29 29 30 30 31 31 31 31 31 32 33 33 33 34 34 34 34 35 35 36 37 37 38 38 39 39 39 39 39 39 39 38 38 37 36 36 35 34 34 34 33
27 27 27 28 26 25 25 27 30 34 38 41 43 44 45 46 46 45 44 43 42 41 40 39 39 38 38 37 36 35 33 31 30 30 31 31 32 31 31 31 31 31 32 31 31 31 32 33 34 35 35 35 35 35 35 36 36 36 36 37 37 38 38 39 40 40 41 42 42 43 43 43 43 43 42 42 41 41 40 39 38 38 37 36 35 35
29 27 26 27 29 28 26 25 26 28 30 32 34 36 38 40 41 43 43 43 43 43 42 41 40 40 41 40 39 37 36 35 33 33 33 34 34 34 34 34 34 34 34 35 35 35 36 37 38 38 39 39 39 39 39 39 39 40 40 41 41 42 43 43 44 44 45 45 45 44 43 43 43 43 43 43 42 41 40 40 39 39 39 38 38 38
28 28 27 27 27 28 28 27 27 28 27 26 26 28 29 29 30 32 34 37 40 41 41 42 41 40 41 42 41 38 36 36 35 35 35 36 36 37 37 37 37 37 38 38 39 39 40 41 41 42 42 42 42 42 42 42 43 44 45 46 46 46 47 47 47 47 46 46 45 43 42 42 43 42 41 41 42 42 41 41 40 39 38 38 38 39
28 29 29 27 27 28 29 29 28 28 26 25 26 26 27 27 26 26 26 28 30 32 34 36 36 35 37 38 38 36 35 35 35 35 36 37 38 39 40 40 41 42 43 44 44 44 44 44 44 45 45 45 45 45 45 46 46 45 46 47 47 47 47 48 48 47 45 44 43 44 44 44 43 40 39 38 38 39 40 40 39 39 39 38 39 40
29 30 30 29 29 29 29 30 29 28 27 26 27 28 29 29 29 29 27 27 27 28 29 30 30 31 32 33 33 34 34 34 34 35 35 36 38 40 40 41 41 42 44 45 47 47 47 47 47 48 48 49 49 49 49 48 46 43 42 43 44 44 46 47 48 48 47 46 47 48 47 45 42 40 38 36 35 35 36 36 37 38 40 40 41 43
32 33 33 33 33 32 30 30 30 30 29 29 29 29 29 29 30 30 29 29 30 31 31 32 32 32 32 32 33 34 35 36 37 38 39 40 41 42 43 43 43 43 43 45 48 49 50 50 51 51 52 52 52 52 51 50 48 46 45 44 44 44 44 45 46 47 47 47 48 47 46 44 43 42 40 36 34 35 35 35 36 37 38 39 41 43
32 33 34 34 35 34 33 31 30 30 29 28 28 29 30 30 31 31 31 31 32 33 33 34 34 34 34 34 35 35 36 37 39 41 42 44 45 46 46 47 47 48 49 50 52 53 53 53 54 55 55 55 55 55 54 53 52 51 51 51 50 48 47 46 46 46 46 47 47 47 47 47 46 46 44 41 39 38 39 39 39 38 37 37 38 39
31 31 31 31 32 32 32 32 31 30 29 29 29 30 31 32 33 33 34 35 35 35 35 34 35 35 35 35 35 35 36 38 39 41 42 44 46 47 48 49 50 52 53 54 55 56 56 57 58 59 59 59 59 59 59 58 58 58 58 58 58 57 56 55 54 54 55 55 55 55 54 54 52 50 48 48 46 44 43 42 42 42 42 40 39 39
37 37 36 35 35 35 35 35 34 34 33 32 32 32 33 34 35 37 38 38 36 35 35 35 35 35 35 36 36 36 37 38 39 41 42 44 45 47 49 50 52 53 54 56 57 58 58 59 60 61 61 62 62 63 63 63 62 62 62 63 63 63 63 63 63 63 63 62 62 61 60 59 57 55 53 53 53 51 49 48 47 47 47 47 47 46
40 41 42 41 40 40 40 40 40 40 39 38 37 37 37 37 38 38 38 37 36 36 36 37 37 37 38 38 38 39 39 40 41 42 43 44 46 47 49 50 52 53 54 55 56 57 59 59 60 61 61 62 62 63 63 63 63 63 63 64 64 65 65 65 65 65 64 63 62 61 60 59 58 58 57 58 58 59 59 58 55 53 52 52 52 52
39 40 41 42 41 40 40 41 42 43 43 43 42 41 40 39 39 38 37 37 37 37 38 39 39 40 40 41 41 42 43 43 44 45 46 47 48 49 50 51 52 54 55 56 56 57 58 59 60 61 61 62 62 62 62 62 63 63 64 64 65 65 65 65 65 65 64 64 63 62 61 59 58 58 57 57 59 60 61 61 60 58 57 57 56 55
39 39 40 41 42 42 42 43 43 43 43 43 43 42 41 41 40 39 39 39 39 39 39 40 41 41 42 43 44 45 45 46 47 48 48 49 50 51 52 53 54 55 56 56 57 58 58 59 60 60 61 62 62 63 63 63 63 64 64 64 65 66 66 65 65 65 64 64 63 62 62 60 59 58 57 56 56 57 57 57 57 57 57 57 56 55
39 40 40 41 42 42 43 44 44 44 44 44 43 43 43 43 43 42 42 42 42 42 42 42 43 44 45 46 46 47 48 48 49 50 51 52 53 54 54 55 55 55 55 56 56 57 57 58 58 58 58 59 60 61 62 62 63 63 64 64 65 66 66 66 66 66 65 65 65 64 64 63 62 60 59 58 56 55 54 53 52 52 54 55 54 52
39 39 40 40 41 41 41 41 42 42 42 42 42 42 43 43 43 43 43 43 43 43 44 44 44 44 45 46 46 47 47 48 48 49 50 51 52 53 53 54 53 53 53 54 55 55 55 56 56 56 56 57 59 60 62 63 64 65 65 66 66 67 66 66 66 66 65 65 64 64 63 63 62 62 61 60 59 58 57 55 53 52 53 55 56 55
36 37 38 38 38 39 39 39 39 39 39 40 40 40 41 41 42 42 42 42 43 43 44 44 44 44 44 45 45 46 46 47 47 48 49 50 50 51 52 52 52 52 52 53 54 54 55 56 57 57 58 60 62 63 65 66 67 67 67 67 68 68 68 68 68 68 67 66 66 65 64 63 62 62 61 60 60 59 59 58 57 55 54 55 57 58
33 34 34 35 35 36 36 37 37 38 38 38 38 38 38 38 39 40 40 41 41 41 42 42 42 42 42 43 43 44 45 45 45 46 47 47 48 49 50 51 52 53 53 54 55 56 57 58 60 62 63 64 64 64 64 64 64 64 65 65 65 66 67 68 68 69 69 69 68 68 67 67 66 65 63 62 61 60 59 59 59 58 57 56 56 57
29 30 31 32 33 33 34 35 36 36 37 37 37 37 37 36 36 35 35 35 36 36 37 38 39 39 40 40 41 42 43 44 44 45 45 46 47 48 49 50 52 54 55 57 58 60 62 64 66 66 66 64 63 62 62 62 62 62 62 63 63 64 64 65 65 66 66 67 67 68 68 68 68 67 67 66 64 63 62 61 61 60 59 59 59 59
24 25 27 28 29 30 31 32 33 34 34 35 36 36 37 37 37 36 36 36 36 36 36 37 38 39 39 40 41 42 43 43 44 44 45 47 48 50 51 53 55 58 60 62 64 65 66 66 65 63 62 61 61 61 61 61 62 62 62 63 63 64 64 64 64 64 64 64 65 65 65 65 65 66 66 66 66 65 64 63 63 62 61 61 61 62
18 20 21 23 24 26 27 28 29 30 31 32 32 33 34 35 35 36 37 38 39 40 41 42 43 44 44 45 46 47 48 49 49 50 51 53 53 55 56 58 59 61 62 62 62 62 61 60 59 59 59 59 60 60 60 61 62 62 63 63 64 64 64 64 65 65 64 64 64 64 65 65 65 64 64 64 65 64 63 62 61 61 60 59 60 61
14 16 17 18 20 21 22 23 24 25 26 27 28 28 29 30 31 31 33 34 36 37 39 40 42 44 45 46 47 48 49 50 50 51 52 53 53 53 54 54 55 55 55 55 55 55 55 55 55 56 56 56 57 57 57 58 58 59 59 59 60 60 61 61 62 62 63 63 64 64 64 65 65 65 65 64 64 63 63 61 59 58 57 56 56 56
Wind_Direction
229 228 225 223 223 225 226 227 229 231 232 232 232 232 233 233 231 233 237 239 239 240 243 245 247 246 245 244 245 246 247 248 248 245 238 236 238 238 237 236 239 245 251 255 259 261 261 258 258 260 259 258 253 239 231 233 247 242 203 198 206 227 250 248 239 241 243 244 244 245 249 260 270 275 279 282 284 285 284 284 284 284 284 284 283 281
227 224 221 220 221 223 225 227 229 232 233 234 234 235 236 235 233 235 238 241 242 242 243 242 241 241 241 241 241 242 240 239 237 230 224 225 229 232 233 235 238 244 249 254 258 258 254 250 251 252 251 251 252 244 233 227 227 222 207 208 220 234 241 243 244 244 243 244 247 251 259 269 276 278 281 282 283 283 282 281 278 280 284 285 285 283
226 225 225 226 225 225 227 228 231 233 234 235 235 236 237 235 234 237 239 242 243 240 238 237 235 236 237 235 235 234 229 225 221 212 209 216 222 225 228 232 235 240 244 246 248 248 242 237 238 242 245 246 247 247 242 235 227 219 216 219 227 234 239 245 248 247 246 246 251 258 266 273 277 279 281 282 282 280 279 278 275 273 278 284 288 289
231 232 232 232 230 228 228 229 233 236 237 238 238 237 235 232 234 237 239 240 239 232 226 226 227 228 229 229 230 228 222 220 216 209 206 210 215 219 225 230 232 231 228 226 230 231 227 229 233 237 241 240 240 243 244 243 236 228 224 227 232 236 240 245 248 249 249 250 253 259 266 272 275 278 280 282 281 276 272 274 274 270 270 277 284 289
238 238 236 235 233 232 231 231 234 237 238 239 239 236 232 230 232 235 236 235 234 227 217 215 219 221 222 225 226 223 221 218 214 210 209 212 217 223 231 232 225 215 203 203 215 219 218 226 232 234 235 234 234 236 240 241 238 234 231 231 234 235 236 239 245 248 250 251 254 259 265 271 275 278 279 280 280 274 269 270 272 270 269 274 279 285
241 240 238 237 236 236 235 235 235 235 236 237 234 231 227 227 229 231 231 230 228 223 214 213 217 219 219 220 218 216 214 212 210 210 210 216 221 225 226 222 217 206 190 195 209 212 216 223 223 222 224 226 229 231 234 237 238 238 237 234 233 233 235 239 243 248 249 251 255 260 266 270 274 278 280 281 279 270 267 271 273 271 270 271 274 280
242 242 241 239 238 237 237 237 236 234 233 232 230 228 226 225 226 227 227 224 222 218 215 215 217 219 221 220 217 213 209 209 212 210 210 216 220 220 219 219 220 214 199 200 209 215 228 235 223 211 211 219 227 234 237 239 241 245 247 244 241 242 243 245 248 251 252 254 260 266 269 272 275 278 282 285 281 268 262 268 272 272 274 275 278 283
242 243 242 241 240 238 235 236 235 232 231 230 229 227 226 225 224 225 225 221 219 217 216 219 220 219 221 220 219 217 213 214 217 215 213 218 221 222 226 231 236 236 228 223 225 231 245 252 242 225 217 218 225 236 243 245 247 252 256 254 252 252 250 248 249 251 254 258 263 268 270 271 274 276 279 285 286 274 263 264 269 271 271 275 285 294
240 241 241 241 239 235 232 232 232 230 230 229 229 227 226 225 224 225 224 220 219 218 217 220 223 222 222 222 220 221 221 220 221 222 222 223 224 227 235 245 254 262 265 259 253 252 254 255 254 243 228 224 228 236 243 247 249 252 253 252 250 247 243 243 245 247 251 257 261 264 265 267 270 272 274 280 286 281 270 265 268 272 270 272 284 295
241 242 243 242 240 235 233 232 231 231 230 230 231 230 227 224 225 226 224 221 220 221 221 222 226 226 226 226 223 222 225 225 227 229 227 226 227 233 242 252 265 274 275 272 269 267 263 259 260 256 245 240 238 237 238 241 244 246 247 247 246 242 238 238 242 245 248 252 255 257 259 261 264 268 271 276 281 283 278 270 268 271 271 273 284 291
245 245 246 245 243 240 237 235 233 231 230 233 235 234 232 227 226 228 227 224 222 224 225 226 230 232 231 231 229 226 227 229 231 232 230 231 234 240 248 258 269 274 274 272 270 269 267 264 263 261 258 258 254 243 237 238 240 242 243 243 244 241 237 238 240 243 247 249 253 255 258 261 262 266 271 275 278 280 279 274 269 271 273 277 284 285
249 250 249 248 246 245 242 240 238 235 233 236 238 238 236 233 230 229 229 229 227 226 227 229 233 235 235 234 235 234 234 235 235 234 235 238 243 249 258 266 270 271 271 271 272 273 271 269 268 265 264 264 262 253 242 239 239 239 239 239 237 232 231 236 241 244 248 250 255 259 262 265 267 269 272 274 277 277 274 272 269 271 276 280 280 275
251 251 249 247 245 245 243 241 240 239 237 237 238 239 238 237 235 232 231 233 233 230 229 231 233 236 237 237 238 238 240 240 240 239 240 244 248 254 261 265 267 269 271 272 273 272 270 270 270 269 270 270 266 260 250 243 240 240 239 236 230 228 231 238 245 247 251 256 260 264 266 268 269 268 268 269 272 274 271 270 269 271 275 277 273 266
246 246 245 243 243 243 242 242 243 245 245 244 243 242 242 242 242 240 237 238 238 236 233 233 233 235 237 239 240 240 241 243 243 244 245 247 252 256 260 261 263 270 274 273 271 268 265 263 263 263 267 270 269 261 250 245 243 243 242 232 225 235 241 243 247 250 254 259 262 264 266 268 268 265 264 264 264 269 273 274 271 271 272 268 261 260
238 239 240 240 240 242 243 243 244 245 245 244 244 243 243 243 244 244 244 242 241 240 238 236 236 237 237 239 241 242 243 244 245 246 246 247 251 257 262 263 267 273 276 276 274 272 269 267 266 260 254 259 265 259 251 247 245 244 243 235 233 243 250 248 250 254 256 260 262 262 263 266 268 265 261 261 262 268 277 277 270 269 270 262 254 257
236 237 238 239 239 239 240 241 242 241 241 242 244 245 245 246 246 246 246 245 243 240 238 237 238 239 239 239 242 244 246 248 249 250 249 250 251 257 262 264 267 271 274 275 273 272 271 274 274 258 241 243 254 248 247 247 244 244 245 242 241 245 251 250 251 257 259 260 261 262 263 266 270 266 259 259 262 269 276 273 265 265 267 257 250 254
238 236 236 238 238 237 236 238 241 241 241 243 247 248 248 248 247 244 244 245 244 241 239 238 239 240 241 240 241 243 246 249 251 253 254 255 256 259 261 261 264 268 269 266 264 266 265 266 273 251 230 242 255 238 240 244 243 247 247 247 252 252 252 253 258 266 266 260 253 253 263 268 270 269 262 261 262 267 271 267 262 262 256 250 250 255
236 234 232 233 235 236 235 235 238 240 239 240 244 246 246 245 245 243 241 242 243 242 242 241 240 240 241 242 243 244 246 248 251 253 255 257 258 260 260 259 262 266 264 258 256 262 258 255 266 249 233 250 261 238 237 243 244 254 252 253 263 258 251 253 262 266 260 255 250 252 263 264 262 264 266 266 264 262 263 262 261 256 249 250 254 256
234 232 231 230 229 231 233 232 233 237 238 238 240 242 241 241 243 243 242 243 246 245 244 243 242 242 242 244 245 246 246 248 250 253 255 258 258 260 261 261 264 265 260 254 254 260 256 250 258 255 245 251 251 237 239 242 245 258 260 254 258 259 254 251 259 262 252 255 265 265 265 261 258 262 266 271 270 263 260 261 258 251 250 258 259 256
235 234 233 233 230 229 231 230 230 233 238 240 240 238 238 239 241 243 244 246 248 248 248 247 246 246 247 248 249 249 249 250 251 253 256 258 259 260 261 261 261 260 255 251 250 255 258 254 256 260 255 248 239 237 244 243 242 251 257 254 253 257 262 256 256 261 255 257 263 266 269 267 266 267 266 271 272 263 255 255 259 259 262 267 267 265
234 234 233 233 233 230 231 232 231 232 235 241 242 239 239 241 241 244 245 246 248 248 250 251 251 252 252 254 255 254 255 254 254 254 253 255 255 253 252 251 251 251 250 248 247 250 254 256 257 259 254 242 234 239 244 240 237 245 253 256 255 257 262 260 255 256 258 261 262 265 269 267 267 268 265 264 262 254 250 254 263 267 268 270 270 271
234 235 233 233 235 233 232 233 233 233 235 238 242 241 241 241 242 245 246 246 247 249 251 254 255 256 255 255 257 256 254 253 252 250 247 246 246 243 243 243 243 246 247 246 246 249 252 253 255 255 249 239 235 235 235 235 238 244 250 253 254 257 263 264 262 259 260 261 262 263 263 263 265 266 264 261 257 255 257 263 267 267 267 268 270 272
233 235 234 235 236 234 232 231 230 232 233 235 238 239 239 241 243 245 247 247 247 248 250 253 255 255 253 254 254 253 251 250 248 247 243 241 240 239 239 241 242 244 246 246 246 250 254 255 255 254 248 241 236 230 228 231 235 238 243 247 251 257 261 263 264 264 263 259 257 257 257 258 262 263 264 263 262 261 263 267 271 271 268 267 269 272
232 232 232 234 236 235 233 230 230 231 232 233 235 237 239 243 245 246 246 246 247 246 246 249 252 252 251 252 251 249 250 250 246 244 243 242 242 242 241 241 242 243 245 248 250 254 257 258 258 257 250 242 236 230 226 225 226 230 238 246 253 257 260 261 261 261 262 262 259 254 250 253 260 265 266 264 262 262 265 271 276 277 271 265 264 268
233 232 231 232 235 236 234 232 230 231 232 232 234 236 238 241 244 244 243 242 243 243 244 245 246 247 248 250 251 252 252 250 245 243 244 246 247 247 247 246 247 249 250 251 253 255 258 259 256 254 249 239 229 223 221 221 224 231 239 246 253 256 259 260 259 259 262 262 259 253 249 252 261 267 269 266 262 261 266 275 282 283 275 264 258 258
234 232 231 233 237 240 242 240 237 235 236 237 237 237 239 240 241 242 242 242 243 243 243 243 243 244 246 247 251 256 256 251 246 245 246 248 250 251 250 250 251 254 255 254 252 252 255 259 256 250 246 241 234 230 228 229 232 237 242 248 253 257 260 261 262 263 263 260 257 254 254 258 263 267 269 268 265 265 270 276 282 284 275 263 255 253
237 236 235 235 237 239 242 244 241 239 241 242 242 241 241 242 242 242 242 243 243 243 243 244 243 244 244 245 248 253 256 253 249 246 245 246 249 251 249 246 247 251 253 254 253 252 255 259 258 254 251 250 250 249 246 244 244 246 248 251 255 258 261 263 264 264 263 262 262 262 263 265 267 269 270 269 268 268 271 274 278 279 273 264 260 261
244 244 240 237 235 234 235 237 237 236 237 239 241 241 240 241 242 242 242 242 242 243 244 245 246 246 245 244 244 247 250 252 251 248 244 241 243 246 245 242 243 248 252 255 256 259 261 260 256 253 253 254 256 255 253 250 250 250 252 253 255 258 261 263 264 265 265 266 267 268 270 271 273 273 274 273 272 271 271 272 274 275 273 270 267 266
253 253 248 242 238 234 233 235 237 237 236 236 236 237 237 237 238 240 240 241 241 242 244 246 248 248 247 244 242 243 245 248 251 250 247 242 242 244 245 246 248 251 254 257 260 263 264 261 256 252 252 253 254 255 254 253 252 253 253 255 257 260 263 265 266 267 268 268 269 270 271 273 274 274 275 274 273 272 272 272 271 271 271 271 269 265
256 259 256 248 243 239 236 236 237 238 238 239 238 238 238 237 237 237 238 238 240 241 243 246 247 248 247 245 242 241 242 244 247 249 249 248 247 249 250 251 252 254 257 260 262 264 263 261 259 259 258 258 257 256 255 256 256 257 257 258 259 260 262 264 266 267 268 268 269 270 270 271 271 272 272 272 272 272 272 272 271 269 267 266 266 263
257 258 257 254 250 246 243 241 241 240 240 241 241 241 242 242 241 239 238 238 239 241 244 246 247 248 248 247 244 241 241 243 246 248 250 252 254 256 257 255 255 256 259 262 264 264 264 263 263 264 265 265 264 262 262 262 262 262 262 262 263 263 263 264 265 266 267 268 268 269 270 270 270 271 271 270 270 270 270 270 270 269 267 264 263 259
263 262 258 257 255 253 249 248 247 247 246 246 246 245 244 244 241 239 238 238 238 239 242 245 247 247 246 245 243 241 240 242 245 248 250 253 256 258 259 258 258 258 259 261 263 263 263 263 264 265 265 266 266 266 266 266 266 267 267 267 267 267 267 267 267 267 267 268 268 269 270 270 271 271 270 270 270 270 269 269 267 266 265 263 260 257
266 265 260 258 258 258 255 250 248 248 248 249 251 251 249 246 243 240 239 240 240 239 241 243 246 247 244 242 240 239 240 241 244 248 250 252 255 258 260 261 260 261 261 261 262 262 262 263 263 263 264 264 266 268 269 269 269 270 270 270 270 270 270 270 270 270 270 269 269 269 269 269 270 269 269 268 269 269 268 268 267 265 264 262 258 255
266 265 263 260 258 257 255 252 248 247 247 248 250 252 252 249 246 244 243 243 243 243 242 243 244 245 243 239 237 236 238 241 244 247 250 252 254 255 257 258 259 260 262 263 263 264 264 264 264 264 264 265 268 270 270 270 270 271 271 271 271 270 270 270 270 271 271 271 269 268 270 272 271 269 268 268 268 268 267 267 267 266 266 263 258 254
263 264 265 263 260 255 252 251 251 250 250 250 250 250 250 250 249 248 247 245 245 244 243 242 243 242 240 239 237 238 240 243 247 251 253 254 255 254 255 257 258 259 261 263 263 264 265 265 266 266 267 268 270 270 271 271 272 271 271 269 268 267 267 267 268 270 271 270 269 270 273 274 272 269 268 268 268 268 266 265 263 262 260 257 255 254
263 263 264 265 263 260 255 253 253 253 252 252 251 252 251 251 251 252 251 251 250 250 249 248 247 245 245 245 245 246 248 249 250 252 254 254 253 253 255 258 260 262 264 265 264 264 264 265 266 266 267 268 269 270 270 271 270 268 266 264 265 265 265 265 266 266 267 267 268 270 272 271 269 268 268 267 265 265 264 263 262 259 257 254 253 254
261 262 264 265 266 266 264 261 258 256 254 252 252 253 253 253 253 253 254 255 257 257 257 257 256 255 253 252 251 251 250 249 248 248 249 250 252 253 256 257 257 259 261 262 263 264 265 265 265 266 267 267 268 268 268 267 266 264 262 262 264 265 264 264 264 264 264 265 266 267 267 267 267 268 266 264 262 261 260 259 259 258 258 257 256 256
257 261 263 265 267 268 267 265 263 260 257 255 254 254 255 256 257 258 259 261 263 263 263 262 261 261 259 258 255 253 251 250 249 248 249 251 252 254 256 256 256 256 256 258 260 263 264 264 265 265 266 266 267 267 266 265 264 263 262 263 264 264 264 263 263 263 264 265 266 265 264 265 266 265 263 259 257 258 257 256 256 256 256 257 258 257
252 253 254 255 258 260 260 258 257 257 255 254 255 255 255 256 257 259 261 264 266 267 266 265 264 263 261 260 258 256 254 253 251 251 252 252 253 254 255 256 256 257 257 258 260 262 263 263 264 265 265 266 266 266 266 265 264 263 263 263 263 263 263 262 262 263 264 265 266 265 265 266 265 263 260 257 255 256 257 258 259 259 257 256 255 253
250 250 249 248 248 251 255 255 253 253 252 251 251 252 253 254 255 257 260 263 265 265 265 264 263 262 261 260 259 257 256 254 253 253 253 253 253 254 255 255 256 257 257 258 259 260 261 262 263 264 265 266 266 266 266 266 266 266 265 265 265 265 264 264 264 265 265 265 265 265 265 265 263 261 258 256 255 256 258 260 260 261 260 258 256 254
252 251 252 252 251 253 256 257 256 256 256 256 255 255 256 256 256 257 260 261 261 260 260 260 261 260 260 260 259 258 257 256 256 256 255 255 256 256 256 257 257 258 258 259 260 261 261 262 263 264 264 265 265 266 267 267 268 268 268 268 268 267 267 267 267 266 266 266 266 265 265 264 263 261 259 257 256 257 259 261 261 260 259 259 258 257
251 251 252 253 254 254 255 256 257 257 257 258 258 259 260 259 259 259 260 259 257 257 257 257 258 258 258 258 258 258 258 258 258 258 258 258 258 258 258 259 259 259 259 260 261 261 262 262 263 263 264 265 265 265 266 266 267 267 267 268 268 268 268 268 268 268 268 268 267 267 266 265 264 263 261 259 258 258 258 259 260 258 258 258 258 258
250 250 250 251 252 253 254 256 257 258 258 259 259 260 261 261 262 262 261 260 259 258 257 257 258 258 258 258 259 259 259 260 260 260 260 260 260 260 260 260 260 260 261 261 261 262 262 263 263 264 265 266 266 266 266 266 266 266 266 266 266 267 267 267 268 268 268 268 268 268 268 267 266 265 263 261 260 259 259 259 258 257 257 257 257 257
250 250 250 250 250 251 253 254 256 257 258 259 260 260 261 262 263 263 263 262 262 262 261 261 261 261 261 261 261 261 261 261 261 261 261 262 262 261 261 261 262 262 263 263 263 263 264 264 265 266 267 268 268 269 268 268 268 268 268 267 267 267 266 266 266 266 266 267 267 267 268 267 267 266 265 263 262 260 259 259 257 254 253 253 253 253
251 251 252 252 253 253 254 255 256 257 257 258 259 259 260 261 262 262 263 263 263 263 263 263 263 263 263 262 262 262 262 262 262 262 262 263 263 262 262 262 262 263 264 264 265 265 266 266 267 268 270 271 271 272 272 272 271 271 271 271 270 269 269 268 267 267 266 266 266 266 266 266 266 265 265 264 263 262 261 260 259 256 252 250 249 250
252 253 253 255 255 256 257 257 258 258 258 259 259 259 260 260 260 261 261 261 262 263 263 263 263 262 262 262 262 261 261 261 262 262 263 263 264 264 264 264 265 266 266 267 268 269 270 271 272 272 273 274 275 275 274 274 274 273 272 272 271 270 270 269 268 268 267 266 266 265 265 264 264 263 263 263 262 262 262 261 260 258 256 253 251 251
252 253 254 255 256 256 257 258 259 259 260 260 261 261 261 261 262 262 263 263 263 264 264 264 265 265 266 266 266 266 267 267 267 268 269 269 270 271 271 271 272 272 273 274 274 275 275 276 277 278 279 278 278 277 276 275 274 273 272 271 270 269 269 269 268 268 267 267 266 265 264 264 263 262 261 260 260 259 259 259 259 259 258 257 255 254
252 253 253 254 255 255 256 256 257 258 259 259 259 259 259 258 258 259 260 261 262 262 263 263 264 265 266 266 267 267 268 268 269 270 270 270 271 270 270 270 270 271 273 275 276 277 278 279 280 280 280 279 278 277 276 275 274 273 272 271 270 269 268 268 268 267 267 267 266 266 265 264 263 262 261 260 259 258 257 256 257 257 257 257 256 256
255 255 254 254 255 256 256 257 258 258 258 258 259 259 258 257 256 255 255 255 255 254 254 255 256 256 257 257 258 258 259 260 261 261 262 262 263 263 264 265 267 268 270 273 275 276 277 278 278 278 278 277 277 276 276 275 274 274 273 272 271 271 270 269 268 267 266 266 265 265 264 264 263 262 262 261 260 259 257 256 255 255 255 255 255 255
258 258 257 257 257 257 257 258 258 259 260 260 260 261 261 261 261 260 259 258 257 256 256 255 256 256 256 256 257 258 259 260 260 261 261 262 263 264 265 267 268 270 272 273 274 275 276 276 276 276 276 276 276 275 275 274 273 273 272 272 271 271 270 269 268 268 267 266 265 264 263 262 262 261 260 260 260 259 258 256 255 254 253 253 253 254
263 262 262 261 261 261 262 262 262 263 263 263 263 263 263 263 263 263 262 262 261 260 260 260 260 260 260 261 261 262 263 264 264 265 265 266 267 268 269 270 271 271 272 273 274 275 275 275 276 276 275 275 275 275 274 274 274 274 273 273 272 272 271 270 269 268 267 266 265 264 263 262 261 260 259 259 258 258 258 257 256 255 253 251 252 254
Height
5724 5725 5726 5727 5728 5728 5729 5731 5732 5733 5735 5737 5739 5740 5742 5744 5746 5746 5747 5749 5751 5752 5754 5756 5757 5758 5759 5760 5761 5762 5764 5766 5767 5769 5771 5772 5772 5773 5774 5775 5775 5777 5778 5778 5778 5779 5779 5779 5778 5777 5776 5777 5778 5779 5780 5781 5782 5782 5782 5783 5784 5785 5786 5786 5786 5786 5786 5786 5786 5785 5786 5786 5787 5787 5788 5788 5788 5788 5787 5787 5787 5786 5786 5786 5786 5786
5722 5723 5723 5724 5725 5726 5727 5729 5730 5731 5733 5735 5736 5738 5740 5742 5743 5744 5745 5746 5748 5750 5752 5753 5754 5755 5756 5757 5758 5760 5761 5763 5765 5766 5768 5769 5770 5771 5772 5772 5774 5775 5776 5776 5776 5777 5777 5777 5777 5776 5775 5776 5776 5777 5779 5780 5780 5781 5781 5782 5783 5784 5785 5785 5785 5785 5785 5784 5784 5784 5784 5785 5785 5786 5786 5786 5786 5786 5786 5785 5785 5785 5784 5784 5784 5784
5720 5720 5721 5722 5723 5725 5726 5727 5728 5729 5731 5733 5735 5736 5738 5739 5740 5741 5742 5744 5746 5748 5749 5750 5751 5752 5753 5755 5756 5758 5760 5761 5762 5763 5765 5766 5767 5769 5770 5771 5772 5773 5774 5774 5774 5774 5774 5775 5775 5775 5775 5775 5776 5776 5778 5778 5779 5780 5780 5781 5782 5783 5783 5783 5783 5783 5783 5782 5782 5782 5782 5783 5784 5784 5784 5785 5785 5784 5784 5784 5784 5783 5783 5782 5782 5782
5717 5718 5719 5721 5722 5723 5724 5725 5726 5728 5730 5731 5733 5734 5736 5737 5737 5738 5740 5742 5744 5746 5747 5748 5749 5750 5752 5753 5755 5756 5758 5759 5760 5761 5762 5764 5765 5766 5768 5769 5771 5771 5772 5772 5772 5772 5773 5773 5773 5774 5774 5775 5775 5776 5776 5777 5777 5778 5778 5779 5780 5781 5781 5781 5781 5781 5781 5780 5780 5780 5781 5781 5782 5783 5784 5783 5783 5783 5783 5782 5782 5782 5782 5781 5781 5780
5715 5717 5718 5719 5720 5721 5722 5723 5725 5726 5728 5729 5731 5733 5734 5734 5735 5737 5738 5740 5742 5744 5746 5747 5747 5749 5750 5752 5753 5755 5756 5757 5758 5760 5761 5762 5763 5765 5767 5768 5769 5770 5770 5770 5770 5770 5771 5771 5772 5772 5773 5773 5774 5774 5774 5775 5775 5775 5776 5777 5778 5778 5779 5779 5779 5779 5779 5779 5778 5778 5779 5780 5781 5782 5782 5782 5782 5782 5781 5781 5781 5781 5780 5780 5779 5779
5713 5715 5716 5717 5718 5720 5721 5722 5723 5725 5726 5728 5729 5730 5731 5732 5733 5735 5736 5738 5740 5742 5744 5745 5746 5747 5749 5751 5752 5753 5754 5756 5757 5758 5760 5761 5763 5764 5766 5766 5767 5768 5769 5769 5768 5769 5769 5770 5770 5771 5771 5772 5772 5772 5772 5773 5773 5774 5775 5776 5776 5777 5777 5777 5777 5777 5777 5777 5777 5777 5778 5778 5779 5780 5781 5781 5780 5780 5779 5779 5779 5779 5779 5779 5778 5778
5712 5713 5714 5716 5717 5718 5720 5721 5722 5723 5725 5726 5727 5728 5729 5731 5732 5733 5735 5737 5739 5741 5742 5743 5745 5746 5748 5749 5751 5752 5753 5755 5756 5757 5759 5760 5762 5763 5764 5765 5766 5767 5767 5767 5767 5768 5768 5768 5769 5769 5769 5770 5770 5770 5771 5772 5772 5774 5774 5775 5775 5775 5775 5775 5776 5776 5776 5776 5776 5776 5777 5777 5778 5778 5779 5779 5779 5778 5778 5778 5778 5777 5777 5777 5777 5776
5710 5711 5713 5714 5715 5717 5718 5719 5721 5722 5723 5724 5726 5727 5728 5729 5731 5732 5734 5736 5738 5739 5741 5742 5744 5746 5747 5748 5750 5751 5752 5753 5755 5756 5758 5759 5760 5761 5762 5763 5764 5765 5765 5766 5766 5766 5766 5766 5767 5767 5768 5768 5769 5770 5771 5771 5772 5773 5773 5773 5773 5773 5773 5773 5773 5774 5774 5775 5775 5775 5776 5776 5776 5777 5776 5776 5776 5776 5776 5776 5776 5776 5775 5775 5774 5774
5708 5709 5711 5712 5713 5715 5716 5717 5719 5720 5721 5723 5724 5725 5727 5728 5730 5731 5733 5734 5736 5738 5740 5740 5742 5744 5745 5747 5748 5750 5751 5753 5754 5755 5756 5757 5759 5760 5760 5761 5762 5762 5763 5764 5764 5764 5765 5764 5765 5765 5766 5767 5768 5769 5769 5770 5771 5771 5771 5771 5771 5770 5770 5770 5771 5771 5772 5773 5774 5774 5774 5774 5774 5774 5774 5774 5774 5774 5774 5774 5774 5774 5774 5773 5772 5772
5706 5707 5709 5710 5712 5713 5714 5716 5717 5719 5720 5721 5722 5723 5725 5727 5728 5730 5731 5733 5734 5736 5738 5739 5740 5742 5744 5745 5747 5748 5750 5751 5752 5753 5754 5756 5757 5758 5759 5760 5760 5761 5761 5761 5762 5762 5762 5762 5762 5763 5765 5766 5767 5767 5768 5768 5768 5768 5768 5767 5767 5767 5767 5768 5769 5770 5770 5771 5771 5771 5771 5771 5772 5772 5772 5772 5772 5772 5772 5772 5772 5772 5772 5772 5771 5770
5704 5705 5707 5709 5710 5712 5713 5714 5715 5717 5718 5719 5720 5722 5723 5725 5727 5728 5729 5731 5732 5734 5736 5737 5738 5740 5742 5743 5744 5746 5748 5749 5750 5752 5753 5754 5755 5756 5757 5758 5758 5758 5759 5759 5759 5760 5760 5760 5760 5761 5762 5764 5764 5765 5766 5766 5765 5765 5764 5764 5764 5764 5765 5766 5767 5768 5768 5769 5769 5769 5769 5769 5770 5770 5770 5770 5770 5770 5770 5770 5770 5770 5770 5770 5770 5769
5702 5704 5705 5707 5708 5710 5711 5712 5713 5715 5717 5718 5719 5720 5722 5723 5725 5726 5727 5728 5730 5732 5733 5735 5736 5738 5739 5740 5742 5744 5745 5747 5748 5750 5751 5752 5753 5754 5754 5755 5755 5756 5756 5757 5757 5758 5758 5759 5758 5759 5760 5761 5763 5763 5763 5763 5762 5760 5759 5759 5760 5761 5763 5764 5764 5765 5765 5766 5767 5768 5768 5767 5768 5768 5768 5768 5768 5768 5768 5768 5768 5768 5768 5768 5767 5767
5700 5702 5703 5705 5706 5708 5709 5710 5711 5713 5715 5716 5717 5718 5720 5721 5722 5724 5725 5726 5727 5729 5731 5732 5734 5735 5736 5738 5739 5741 5742 5744 5746 5747 5748 5750 5750 5751 5752 5752 5753 5753 5754 5755 5755 5755 5756 5756 5756 5757 5758 5760 5761 5762 5762 5760 5757 5755 5756 5758 5759 5759 5761 5762 5762 5763 5764 5765 5766 5766 5766 5765 5765 5765 5765 5766 5766 5766 5765 5766 5766 5766 5766 5765 5765 5765
5698 5699 5701 5703 5704 5705 5707 5708 5710 5711 5713 5715 5716 5717 5718 5719 5720 5721 5722 5724 5725 5727 5729 5730 5732 5732 5734 5735 5737 5738 5740 5741 5743 5744 5746 5747 5748 5749 5749 5750 5750 5750 5751 5752 5752 5753 5753 5753 5753 5753 5755 5757 5759 5760 5759 5754 5751 5753 5757 5759 5759 5759 5759 5760 5761 5761 5762 5763 5764 5763 5763 5762 5762 5762 5763 5763 5763 5763 5764 5764 5764 5764 5763 5763 5762 5763
5695 5697 5698 5700 5702 5703 5705 5707 5709 5710 5711 5712 5713 5714 5715 5716 5717 5719 5720 5721 5723 5725 5726 5728 5729 5729 5731 5733 5734 5736 5737 5739 5740 5741 5743 5744 5745 5746 5747 5747 5747 5748 5748 5748 5749 5750 5750 5751 5751 5750 5751 5753 5755 5757 5754 5748 5748 5754 5757 5757 5756 5755 5756 5758 5759 5759 5760 5760 5760 5760 5760 5759 5759 5759 5760 5761 5761 5761 5761 5762 5762 5762 5761 5761 5760 5761
5694 5695 5696 5698 5700 5701 5703 5705 5706 5708 5709 5709 5710 5712 5713 5714 5715 5716 5718 5719 5720 5722 5723 5724 5725 5726 5728 5731 5732 5734 5735 5736 5737 5739 5740 5741 5743 5744 5744 5745 5745 5745 5745 5745 5746 5747 5747 5748 5748 5748 5748 5749 5751 5752 5747 5745 5750 5754 5754 5752 5752 5753 5754 5755 5756 5756 5757 5757 5757 5757 5757 5757 5757 5756 5757 5758 5758 5759 5759 5759 5759 5760 5759 5759 5759 5759
5692 5693 5695 5696 5697 5699 5701 5702 5703 5705 5706 5707 5708 5710 5711 5712 5713 5714 5715 5716 5717 5718 5719 5721 5722 5723 5726 5728 5730 5732 5733 5734 5734 5735 5737 5738 5739 5740 5741 5742 5742 5742 5742 5742 5742 5742 5743 5744 5744 5746 5748 5747 5748 5746 5743 5747 5751 5749 5747 5748 5750 5751 5751 5751 5752 5753 5754 5754 5755 5755 5755 5755 5755 5754 5755 5756 5756 5756 5756 5756 5757 5757 5757 5757 5757 5757
5689 5690 5692 5693 5694 5696 5698 5700 5701 5702 5703 5705 5706 5708 5709 5710 5710 5711 5712 5713 5714 5715 5716 5718 5719 5721 5723 5725 5727 5729 5730 5731 5732 5733 5733 5734 5735 5736 5736 5737 5738 5738 5738 5738 5738 5738 5739 5741 5742 5744 5745 5745 5746 5743 5742 5747 5748 5743 5743 5746 5748 5747 5746 5748 5750 5751 5751 5752 5752 5753 5753 5753 5753 5753 5753 5753 5753 5753 5753 5753 5754 5754 5755 5755 5755 5755
5685 5687 5688 5690 5691 5693 5695 5697 5698 5699 5700 5702 5704 5705 5706 5707 5707 5709 5710 5710 5711 5712 5714 5715 5717 5718 5720 5722 5724 5726 5727 5728 5729 5729 5729 5729 5730 5731 5731 5732 5733 5734 5734 5734 5734 5734 5736 5739 5740 5740 5741 5743 5743 5741 5741 5744 5743 5739 5740 5745 5746 5743 5743 5747 5748 5748 5749 5750 5750 5751 5750 5750 5750 5750 5751 5751 5751 5751 5751 5751 5751 5752 5752 5753 5753 5753
5683 5685 5686 5687 5689 5690 5692 5693 5695 5696 5698 5699 5701 5702 5703 5704 5705 5706 5707 5708 5709 5710 5711 5712 5714 5716 5718 5719 5721 5722 5723 5724 5725 5725 5725 5725 5725 5726 5727 5727 5729 5729 5730 5731 5731 5732 5733 5735 5736 5737 5737 5739 5740 5739 5738 5739 5739 5737 5738 5741 5742 5741 5742 5745 5746 5746 5747 5747 5748 5748 5748 5748 5748 5749 5749 5749 5749 5749 5749 5749 5749 5749 5750 5750 5750 5751
5680 5682 5683 5684 5686 5687 5688 5690 5692 5694 5695 5696 5697 5699 5700 5702 5703 5704 5704 5705 5706 5707 5708 5709 5711 5713 5715 5716 5717 5718 5719 5720 5721 5721 5721 5721 5721 5722 5723 5723 5725 5725 5726 5727 5729 5729 5730 5730 5731 5732 5732 5734 5736 5736 5736 5736 5736 5736 5736 5738 5739 5739 5741 5742 5743 5744 5744 5745 5746 5746 5746 5747 5747 5747 5748 5748 5748 5747 5747 5747 5747 5747 5748 5748 5748 5748
5677 5678 5680 5681 5683 5684 5685 5687 5689 5690 5692 5693 5694 5696 5698 5699 5700 5701 5702 5702 5703 5705 5706 5707 5708 5710 5711 5713 5713 5714 5715 5717 5717 5717 5718 5718 5718 5719 5719 5720 5722 5723 5723 5724 5725 5726 5726 5726 5727 5728 5728 5729 5731 5733 5733 5733 5733 5733 5734 5735 5736 5737 5738 5739 5740 5741 5742 5743 5743 5744 5745 5745 5745 5746 5746 5746 5746 5746 5746 5746 5746 5746 5746 5746 5746 5745
5674 5676 5677 5678 5680 5681 5682 5684 5685 5686 5688 5690 5691 5693 5694 5695 5697 5698 5699 5700 5701 5703 5704 5705 5706 5707 5708 5710 5711 5712 5713 5714 5715 5715 5715 5715 5716 5716 5717 5718 5719 5720 5720 5721 5722 5722 5722 5723 5723 5724 5725 5726 5728 5729 5730 5730 5730 5730 5731 5732 5733 5734 5735 5736 5737 5738 5739 5740 5741 5742 5742 5743 5743 5743 5744 5744 5744 5744 5744 5744 5744 5744 5744 5744 5744 5743
5670 5672 5674 5675 5676 5678 5679 5680 5681 5683 5685 5686 5688 5689 5691 5692 5694 5695 5697 5698 5699 5700 5701 5702 5703 5704 5706 5707 5709 5709 5710 5711 5712 5713 5713 5713 5713 5714 5715 5716 5716 5717 5718 5718 5719 5719 5719 5720 5721 5722 5723 5724 5725 5726 5727 5727 5728 5728 5728 5729 5730 5731 5732 5733 5734 5735 5736 5737 5738 5739 5740 5740 5740 5740 5741 5741 5742 5742 5742 5742 5742 5743 5742 5742 5742 5741
5667 5668 5669 5671 5673 5674 5675 5676 5678 5679 5681 5683 5685 5686 5688 5689 5691 5692 5694 5695 5696 5697 5698 5700 5700 5702 5704 5705 5706 5707 5708 5709 5710 5710 5711 5711 5711 5712 5713 5713 5714 5715 5716 5716 5717 5717 5717 5718 5718 5719 5720 5721 5722 5723 5724 5725 5726 5726 5726 5727 5727 5728 5729 5730 5731 5732 5733 5734 5735 5736 5736 5737 5737 5737 5738 5738 5739 5740 5740 5740 5740 5740 5740 5739 5739 5739
5663 5664 5666 5668 5669 5671 5672 5674 5676 5677 5678 5680 5682 5683 5685 5686 5688 5689 5691 5692 5693 5694 5696 5697 5698 5700 5701 5702 5703 5704 5705 5706 5707 5708 5708 5709 5709 5710 5711 5711 5712 5713 5714 5714 5715 5715 5715 5715 5716 5717 5719 5720 5721 5722 5722 5723 5724 5724 5725 5725 5725 5726 5727 5727 5729 5730 5730 5731 5731 5732 5733 5733 5733 5734 5734 5735 5736 5736 5737 5737 5737 5737 5737 5737 5737 5737
5659 5660 5663 5665 5667 5668 5670 5672 5674 5675 5676 5677 5679 5680 5682 5683 5684 5686 5687 5688 5690 5691 5692 5693 5695 5697 5698 5699 5700 5701 5702 5703 5704 5705 5706 5707 5707 5708 5709 5709 5710 5711 5711 5712 5712 5712 5713 5713 5714 5715 5716 5717 5718 5719 5720 5721 5721 5722 5723 5723 5724 5724 5724 5725 5726 5726 5727 5728 5728 5729 5729 5729 5730 5730 5731 5731 5732 5732 5733 5733 5734 5734 5734 5734 5734 5734
5656 5657 5659 5661 5663 5665 5666 5667 5669 5671 5672 5673 5675 5676 5678 5679 5681 5682 5683 5685 5686 5688 5689 5690 5692 5693 5695 5696 5697 5698 5699 5700 5701 5702 5703 5704 5705 5705 5706 5707 5708 5708 5708 5709 5709 5709 5710 5710 5711 5711 5712 5714 5715 5716 5717 5717 5718 5719 5720 5720 5721 5721 5722 5722 5723 5723 5724 5724 5725 5725 5725 5725 5726 5726 5727 5727 5728 5728 5729 5729 5730 5730 5730 5730 5731 5731
5652 5653 5655 5657 5658 5660 5662 5663 5664 5666 5667 5668 5669 5671 5673 5675 5676 5677 5679 5681 5682 5684 5685 5686 5688 5690 5691 5692 5694 5695 5696 5697 5698 5699 5700 5701 5702 5702 5703 5704 5704 5705 5705 5705 5706 5706 5706 5707 5707 5708 5709 5710 5711 5712 5713 5713 5714 5715 5716 5717 5717 5718 5718 5718 5719 5719 5720 5720 5720 5720 5721 5721 5721 5721 5722 5723 5724 5724 5724 5725 5726 5726 5726 5726 5726 5727
5650 5651 5652 5654 5654 5656 5657 5659 5660 5661 5662 5664 5665 5666 5668 5670 5672 5673 5675 5676 5678 5679 5681 5682 5684 5685 5687 5689 5690 5691 5692 5693 5694 5695 5696 5697 5698 5699 5700 5700 5701 5701 5702 5702 5702 5703 5703 5703 5704 5704 5705 5707 5707 5708 5709 5709 5710 5711 5711 5712 5713 5713 5714 5714 5714 5714 5715 5715 5715 5715 5715 5716 5716 5716 5717 5717 5718 5719 5719 5720 5720 5721 5721 5721 5721 5722
5647 5648 5650 5651 5653 5653 5654 5655 5656 5657 5658 5660 5661 5663 5664 5666 5667 5668 5670 5672 5674 5675 5676 5678 5680 5681 5683 5685 5686 5687 5688 5689 5690 5691 5692 5693 5694 5695 5696 5697 5697 5698 5698 5699 5699 5699 5700 5700 5701 5701 5702 5702 5703 5704 5704 5705 5705 5706 5706 5707 5708 5708 5709 5709 5709 5709 5710 5710 5710 5710 5710 5710 5710 5710 5711 5712 5713 5713 5714 5714 5714 5715 5715 5716 5716 5716
5643 5645 5646 5648 5649 5650 5651 5652 5653 5654 5655 5656 5658 5659 5661 5661 5662 5664 5665 5667 5669 5671 5672 5674 5675 5677 5679 5680 5682 5683 5684 5685 5686 5687 5688 5689 5690 5691 5691 5692 5693 5693 5694 5694 5695 5695 5696 5696 5696 5697 5697 5697 5697 5698 5698 5699 5699 5700 5700 5701 5702 5702 5703 5703 5704 5704 5704 5704 5704 5704 5704 5704 5704 5704 5705 5705 5706 5707 5707 5708 5708 5709 5710 5710 5711 5711
5639 5641 5643 5644 5645 5646 5648 5648 5649 5650 5651 5653 5654 5656 5657 5658 5659 5660 5662 5663 5665 5666 5668 5669 5671 5672 5674 5675 5677 5678 5679 5680 5682 5683 5683 5684 5685 5686 5687 5687 5688 5688 5689 5690 5690 5691 5691 5691 5691 5692 5692 5692 5692 5692 5692 5693 5693 5693 5693 5694 5695 5695 5696 5696 5697 5697 5698 5698 5698 5698 5698 5698 5698 5698 5698 5698 5699 5700 5700 5701 5702 5703 5703 5704 5705 5705
5635 5636 5638 5639 5641 5642 5643 5644 5645 5646 5648 5649 5651 5652 5653 5655 5656 5657 5659 5659 5661 5662 5663 5664 5666 5667 5668 5670 5671 5672 5673 5675 5676 5678 5678 5679 5680 5681 5682 5682 5683 5683 5683 5684 5685 5685 5685 5685 5686 5686 5686 5686 5686 5686 5686 5687 5687 5687 5687 5687 5688 5688 5688 5688 5689 5689 5690 5691 5691 5691 5691 5691 5691 5691 5692 5692 5692 5693 5694 5695 5696 5698 5699 5699 5699 5699
5632 5633 5633 5635 5636 5638 5639 5640 5641 5643 5645 5646 5648 5649 5650 5651 5652 5653 5654 5655 5656 5658 5659 5660 5661 5662 5663 5664 5666 5667 5668 5669 5671 5672 5673 5674 5675 5676 5676 5677 5677 5678 5678 5678 5679 5679 5679 5679 5680 5680 5680 5680 5680 5680 5680 5680 5681 5681 5681 5680 5680 5681 5681 5681 5681 5682 5683 5684 5684 5685 5685 5685 5685 5685 5685 5685 5685 5686 5687 5688 5690 5693 5694 5694 5693 5693
5628 5629 5629 5630 5631 5633 5634 5636 5638 5639 5641 5642 5644 5645 5646 5647 5648 5649 5650 5652 5653 5654 5655 5656 5657 5658 5659 5660 5661 5662 5663 5665 5667 5667 5668 5668 5668 5670 5671 5672 5672 5672 5672 5672 5672 5672 5672 5673 5673 5673 5673 5673 5673 5673 5673 5674 5674 5674 5674 5673 5673 5674 5674 5675 5675 5676 5677 5678 5677 5677 5678 5678 5679 5679 5679 5678 5678 5679 5680 5681 5683 5685 5686 5687 5686 5686
5624 5625 5625 5626 5627 5628 5630 5632 5633 5635 5636 5638 5639 5640 5641 5642 5643 5645 5646 5647 5648 5649 5650 5651 5652 5653 5655 5655 5656 5657 5658 5660 5661 5661 5662 5662 5662 5663 5665 5666 5666 5666 5666 5666 5665 5665 5665 5665 5666 5666 5666 5666 5666 5666 5667 5667 5667 5667 5667 5667 5667 5668 5668 5668 5669 5670 5671 5672 5671 5672 5672 5672 5673 5673 5673 5672 5672 5672 5673 5674 5675 5676 5677 5678 5679 5679
5621 5621 5622 5622 5622 5623 5624 5626 5627 5629 5632 5634 5635 5636 5637 5638 5638 5639 5640 5641 5643 5644 5645 5646 5647 5648 5649 5650 5651 5652 5653 5653 5654 5655 5656 5656 5656 5657 5657 5658 5658 5659 5659 5659 5658 5658 5658 5658 5658 5658 5658 5658 5658 5659 5659 5660 5660 5660 5660 5660 5661 5661 5661 5662 5663 5663 5664 5665 5665 5666 5666 5667 5667 5667 5667 5666 5666 5666 5667 5668 5668 5669 5671 5672 5672 5672
5617 5618 5619 5619 5619 5619 5620 5621 5622 5624 5627 5629 5630 5631 5632 5633 5634 5635 5635 5636 5638 5639 5639 5640 5641 5642 5643 5644 5645 5646 5646 5647 5648 5649 5649 5650 5650 5650 5651 5651 5651 5652 5652 5652 5652 5651 5651 5651 5651 5651 5651 5651 5651 5651 5652 5652 5653 5653 5653 5653 5653 5654 5654 5655 5656 5656 5657 5658 5658 5658 5659 5660 5660 5661 5661 5661 5660 5660 5661 5662 5662 5663 5665 5665 5666 5666
5612 5613 5614 5615 5616 5617 5617 5617 5618 5620 5622 5624 5625 5626 5627 5628 5629 5630 5630 5632 5634 5634 5634 5635 5636 5636 5637 5638 5639 5639 5640 5640 5641 5642 5642 5643 5643 5644 5644 5644 5644 5645 5645 5645 5645 5645 5644 5644 5644 5644 5644 5644 5644 5644 5644 5645 5645 5645 5645 5645 5645 5645 5646 5647 5647 5648 5649 5649 5650 5650 5651 5651 5652 5653 5654 5654 5654 5654 5654 5655 5656 5657 5658 5659 5659 5660
5607 5608 5608 5610 5611 5613 5613 5613 5614 5616 5618 5619 5620 5621 5622 5622 5623 5625 5626 5628 5629 5629 5629 5629 5630 5630 5631 5632 5632 5633 5633 5634 5635 5635 5635 5636 5636 5636 5637 5637 5637 5637 5637 5638 5638 5637 5637 5637 5637 5636 5636 5636 5636 5636 5636 5637 5637 5637 5637 5637 5636 5635 5636 5637 5637 5638 5639 5639 5640 5641 5641 5642 5643 5644 5645 5646 5646 5647 5647 5648 5649 5650 5651 5651 5652 5652
5601 5602 5603 5604 5606 5607 5607 5608 5609 5611 5613 5614 5615 5615 5616 5616 5617 5619 5621 5622 5622 5622 5623 5624 5624 5624 5625 5625 5626 5626 5627 5627 5628 5628 5629 5629 5629 5629 5629 5629 5629 5629 5629 5629 5629 5629 5629 5629 5628 5628 5628 5627 5628 5628 5628 5629 5629 5628 5628 5628 5626 5626 5626 5627 5627 5628 5629 5629 5630 5631 5632 5633 5633 5634 5635 5636 5637 5638 5639 5640 5641 5642 5643 5643 5644 5645
5595 5596 5597 5598 5600 5601 5602 5602 5604 5605 5607 5609 5609 5609 5610 5610 5611 5613 5614 5615 5615 5616 5617 5617 5618 5618 5619 5619 5619 5620 5620 5620 5621 5621 5622 5622 5621 5621 5621 5621 5621 5621 5621 5621 5621 5621 5621 5620 5620 5620 5619 5619 5619 5619 5619 5619 5620 5620 5619 5619 5618 5617 5618 5618 5618 5619 5619 5619 5620 5621 5621 5623 5624 5625 5626 5627 5628 5629 5630 5631 5632 5633 5634 5635 5636 5637
5589 5591 5592 5593 5594 5595 5596 5596 5598 5600 5601 5602 5602 5603 5603 5604 5605 5606 5607 5608 5608 5609 5610 5610 5611 5611 5612 5612 5612 5613 5613 5613 5613 5614 5614 5614 5614 5613 5613 5613 5613 5613 5613 5613 5612 5612 5613 5612 5612 5612 5611 5610 5609 5609 5609 5609 5609 5610 5610 5609 5608 5608 5609 5609 5610 5610 5610 5610 5611 5611 5612 5613 5614 5615 5616 5617 5618 5620 5621 5622 5623 5625 5626 5627 5628 5629
5583 5585 5586 5587 5588 5589 5590 5591 5592 5594 5595 5595 5596 5597 5597 5598 5599 5600 5600 5601 5601 5602 5603 5603 5604 5604 5605 5605 5605 5605 5605 5606 5606 5606 5606 5606 5606 5606 5605 5605 5605 5605 5605 5605 5605 5604 5604 5604 5604 5604 5603 5602 5601 5600 5599 5598 5598 5599 5599 5599 5598 5598 5598 5599 5599 5600 5600 5601 5601 5602 5602 5603 5604 5605 5606 5607 5609 5610 5612 5613 5615 5616 5618 5619 5620 5621
5578 5579 5580 5581 5582 5583 5584 5584 5586 5587 5588 5589 5590 5591 5591 5592 5593 5593 5594 5594 5595 5596 5596 5596 5597 5597 5598 5598 5598 5598 5598 5599 5599 5599 5599 5599 5598 5598 5598 5598 5598 5598 5597 5597 5597 5596 5596 5596 5596 5596 5595 5594 5592 5591 5590 5588 5587 5588 5588 5587 5586 5586 5586 5587 5588 5588 5589 5590 5591 5591 5592 5593 5594 5595 5596 5598 5599 5600 5602 5603 5605 5607 5609 5610 5611 5612
5573 5574 5575 5576 5577 5578 5578 5579 5580 5581 5582 5583 5584 5585 5585 5586 5586 5587 5588 5588 5589 5589 5590 5590 5590 5590 5590 5591 5591 5591 5591 5592 5592 5592 5592 5592 5591 5590 5590 5590 5589 5589 5588 5588 5588 5588 5587 5587 5586 5586 5585 5584 5582 5580 5579 5578 5577 5576 5576 5576 5575 5574 5574 5574 5575 5576 5577 5577 5578 5579 5581 5582 5583 5584 5586 5587 5589 5591 5592 5593 5595 5597 5599 5601 5602 5603
5569 5570 5571 5571 5572 5573 5573 5574 5575 5576 5577 5578 5579 5579 5580 5581 5581 5582 5582 5583 5583 5584 5584 5584 5584 5585 5585 5585 5585 5585 5585 5585 5586 5586 5585 5584 5584 5583 5583 5583 5582 5581 5580 5580 5579 5579 5578 5578 5577 5575 5574 5573 5571 5570 5568 5567 5566 5565 5565 5565 5564 5564 5564 5564 5564 5565 5565 5566 5566 5567 5568 5569 5571 5572 5574 5576 5578 5580 5582 5584 5585 5587 5589 5591 5593 5594
5565 5566 5567 5567 5568 5568 5569 5569 5570 5571 5572 5573 5574 5574 5575 5576 5577 5577 5578 5579 5579 5579 5579 5580 5580 5580 5580 5580 5581 5580 5580 5580 5581 5581 5580 5579 5578 5578 5577 5576 5575 5574 5573 5572 5571 5571 5570 5568 5567 5566 5564 5563 5561 5560 5558 5557 5556 5555 5554 5553 5553 5553 5553 5554 5554 5554 5555 5555 5555 5556 5556 5557 5558 5560 5561 5563 5565 5568 5570 5573 5575 5578 5580 5582 5583 5585
5562 5563 5563 5564 5564 5564 5565 5566 5566 5567 5568 5568 5569 5570 5570 5571 5572 5572 5573 5574 5574 5574 5574 5574 5574 5575 5575 5575 5575 5575 5575 5575 5575 5575 5574 5573 5572 5572 5571 5570 5569 5568 5566 5565 5564 5562 5561 5559 5558 5556 5555 5553 5551 5550 5548 5547 5545 5544 5544 5543 5542 5542 5542 5542 5542 5543 5544 5544 5544 5545 5545 5545 5546 5548 5549 5551 5553 5555 5558 5561 5564 5567 5571 5572 5573 5575
5560 5560 5561 5561 5561 5561 5562 5562 5563 5563 5564 5564 5565 5565 5566 5566 5567 5567 5567 5568 5568 5568 5568 5568 5568 5568 5568 5568 5568 5568 5568 5568 5568 5567 5566 5566 5565 5565 5564 5563 5562 5560 5559 5557 5556 5554 5552 5551 5549 5548 5546 5544 5542 5541 5539 5537 5536 5535 5534 5534 5533 5532 5532 5531 5531 5532 5532 5532 5532 5533 5533 5534 5535 5536 5538 5540 5542 5543 5546 5549 5553 5556 5559 5562 5565 5566